Location: *
(43.0333°S, 179.9667°E)
Time: 21:26:01
(UTC+00:00)

Daily predictions for brighter satellites

Satellite Brightness Start Highest point End
(mag) Time Altitude Azimuth Time Altitude Azimuth Time Altitude Azimuth
CZ-4C R/B 3.9 14:37:08 38° SSE 14:37:08 38° SSE 14:41:00 10° SE
Cosmos 2219 Rocket 4.4 14:36:24 20° ESE 14:36:24 20° ESE 14:39:00 10° SE
SL-16 R/B 4.2 14:30:05 10° SSE 14:32:51 27° SSE 14:32:51 27° SSE
COSMOS 2428 4.2 15:03:29 33° E 15:03:29 33° E 15:07:33 10° SE
USA 215 4.1 15:07:37 10° E 15:13:47 44° SSE 15:15:26 37° S
SL-16 R/B 4.3 15:23:18 16° S 15:23:18 16° S 15:24:51 10° S
Cosmos 2360 Rocket 3.8 15:23:51 27° S 15:23:51 27° S 15:26:33 10° SSE
ALOS 4.2 15:18:46 10° NE 15:22:44 27° ESE 15:26:43 10° S
Cosmos 2322 Rocket 4.2 15:30:10 18° S 15:30:10 18° S 15:31:56 10° S
Cosmos 2279 Rocket 4.2 15:36:48 60° NE 15:37:42 69° E 15:44:00 10° SSE
Cosmos 2333 Rocket 2.4 15:42:56 68° SSE 15:42:56 68° SSE 15:47:59 10° SSE
Cosmos 2237 Rocket 3.8 15:41:08 17° NNE 15:44:39 32° ENE 15:49:40 10° SE
Cosmos 2278 Rocket 3.1 15:50:08 10° SSW 15:55:39 47° ESE 16:01:06 10° NE
NOSS 0 Rocket 4.5 15:57:13 30° N 16:00:14 57° ENE 16:06:22 10° SSE
H-2A R/B 2.8 15:55:50 10° SSE 15:59:18 51° SSE 15:59:18 51° SSE
Cosmos 1452 Rocket 4.5 15:55:20 10° S 16:00:28 46° ESE 16:05:33 10° NE
Okean 2 Rocket 3.9 16:00:01 42° NE 16:01:01 52° E 16:05:28 10° SSE
CZ-4B R/B 4.0 16:01:00 10° SE 16:03:38 21° E 16:05:51 12° NE
Sich 1 Rocket 4.3 16:06:05 48° S 16:06:05 48° S 16:09:27 10° S
Meteor 2-9 Rocket 4.1 16:09:09 38° N 16:11:25 85° E 16:16:59 10° S
Okean O Rocket 3.7 16:07:45 10° NE 16:11:35 28° ESE 16:15:27 10° S
STARLINK-1126 4.4 16:13:12 44° NE 16:13:12 44° NE 16:16:09 10° NE
Cosmos 2180 Rocket 4.4 16:10:42 30° NNW 16:14:07 81° W 16:20:39 10° S
COBE Rocket 4.0 16:11:33 10° SSE 16:16:48 79° ENE 16:19:44 26° N
STARLINK-1082 4.3 16:17:59 48° NNE 16:17:59 48° NNE 16:21:07 10° NE
Cosmos 2219 Rocket 2.3 16:18:10 52° WSW 16:18:10 52° WSW 16:23:44 10° SSE
SAR-Lupe-4 4.0 16:15:09 10° SSE 16:18:34 61° ESE 16:18:34 61° ESE
SL-16 R/B 4.0 16:14:41 10° S 16:17:56 21° SW 16:17:56 21° SW
Cosmos 1707 4.3 16:16:02 10° S 16:19:43 37° ESE 16:23:19 10° NE
NOSS 2-3 (E) 4.2 16:14:54 19° SW 16:19:55 84° WNW 16:25:11 10° NNE
STARLINK-1100 4.1 16:22:47 50° NNE 16:22:47 50° NNE 16:26:04 10° NE
SJ-12 3.8 16:17:59 10° NNE 16:22:05 89° ESE 16:26:16 10° SSW
CZ-4C R/B 4.0 16:22:19 24° SW 16:23:27 25° SW 16:28:52 10° SSE
MOS 1-B 4.4 16:20:48 10° NNE 16:26:36 83° ESE 16:32:29 10° SSW
STARLINK-1083 4.0 16:27:31 52° N 16:27:31 52° N 16:30:58 10° NE
Cosmos 2292 Rocket 4.2 16:23:01 10° S 16:27:33 72° E 16:33:35 10° NNE
METEOR-M 4.0 16:24:06 10° N 16:29:28 72° WNW 16:34:55 10° SSW
Landsat 5 3.4 16:25:49 10° S 16:29:48 64° SW 16:29:48 64° SW
Cosmos 1025 Rocket 3.4 16:26:06 10° S 16:30:34 67° E 16:34:59 10° NNE
STARLINK-1125 3.9 16:32:18 51° NNW 16:32:18 51° NNW 16:35:54 10° NE
Cosmos 371 Rocket 3.6 16:30:16 10° SSW 16:35:12 69° ESE 16:40:03 10° NNE
SAR-Lupe-1 4.0 16:32:27 10° SSE 16:36:08 88° WSW 16:36:39 64° NNW
STARLINK-1109 3.9 16:37:04 48° NNW 16:37:04 48° NNW 16:40:49 10° NNE
NOSS 2-3 (D) 4.2 16:31:04 12° SW 16:37:18 68° WNW 16:42:30 10° NNE
STARLINK-1123 4.4 16:37:22 30° SSW 16:39:05 48° SSE 16:43:10 10° ENE
USA 229 DEB 4.0 16:39:29 35° W 16:40:51 38° WNW 16:46:45 10° N
USA 229 4.0 16:39:31 34° W 16:40:58 38° WNW 16:46:53 10° N
STARLINK-1091 4.0 16:41:52 45° NW 16:41:52 45° NW 16:45:44 10° NNE
Okean 1 Rocket 4.3 16:38:56 10° NNE 16:43:13 44° E 16:47:34 10° SSE
STARLINK-1097 4.3 16:42:09 28° SSW 16:44:05 52° SSE 16:48:11 10° ENE
Cosmos 2266 Rocket 3.9 16:38:19 10° S 16:44:33 75° W 16:50:50 10° N
ISS -2.8 16:45:27 34° SSW 16:46:27 45° SSE 16:49:47 10° E
FENGYUN 3A 3.8 16:41:16 10° N 16:46:29 48° W 16:51:47 10° SSW
COSMOS 2428 3.3 16:45:32 33° WSW 16:46:34 36° SW 16:51:51 10° S
STARLINK-1072 4.1 16:46:42 41° NW 16:46:44 41° NW 16:50:40 10° NNE
Cosmos 1980 3.6 16:43:27 20° NNW 16:47:30 77° WSW 16:53:14 10° SSE
STARLINK-1099 4.2 16:46:57 26° SW 16:49:05 55° SSE 16:53:13 10° ENE
NOSS 3-1 (A) 3.5 16:47:26 24° WSW 16:50:37 44° WNW 16:55:45 10° N
PAYLOAD B 4.2 16:45:36 10° N 16:51:12 78° WNW 16:56:55 10° SSW
STARLINK-1096 4.2 16:51:30 37° NW 16:51:41 37° NW 16:55:33 10° NNE
Cosmos 972 Rocket 4.4 16:45:33 10° SSW 16:51:54 56° W 16:57:29 10° N
Cosmos 1420 Rocket 4.3 16:48:49 10° SSW 16:53:51 44° WNW 16:58:52 10° N
STARLINK-1104 4.1 16:51:43 24° SW 16:54:03 60° SSE 16:58:13 10° ENE
USA 215 3.2 16:49:56 10° NE 16:56:32 72° NW 17:02:47 12° SW
STARLINK-1079 4.3 16:56:16 33° WNW 16:56:36 34° NW 17:00:24 10° NNE
Cosmos 1536 Rocket 3.5 16:53:25 10° SSW 16:57:56 67° W 17:02:24 10° N
STARLINK-1144 4.0 16:56:29 23° SW 16:59:02 64° SSE 17:03:13 10° ENE
ALOS 2.9 16:55:46 10° NNW 17:00:00 33° W 17:04:18 10° SSW
STARLINK-1116 4.4 17:01:05 30° WNW 17:01:35 31° NW 17:05:18 10° NNE
STARLINK-1103 3.9 17:01:18 21° SW 17:04:03 69° SSE 17:08:14 10° ENE
SMAP 3.9 17:01:28 10° NNE 17:06:01 53° ESE 17:10:39 10° S
Cosmos 2360 Rocket 4.2 17:05:38 11° SW 17:06:20 11° SW 17:07:43 10° SSW
SL-16 R/B 3.0 17:00:51 10° N 17:06:22 54° ENE 17:11:58 10° SSE
GP-B 4.0 17:02:15 10° NNE 17:06:36 53° E 17:11:01 10° S
Cosmos 332 Rocket 3.7 17:02:37 10° SSW 17:07:29 79° WNW 17:12:18 10° NNE
STARLINK-1101 3.8 17:06:04 19° SW 17:09:02 75° SE 17:13:13 10° ENE
CZ-3 R/B 4.0 16:54:32 20° W 17:11:04 39° NNW 17:19:12 10° NE
STARLINK-1102 3.7 17:10:53 18° SW 17:14:02 81° SE 17:18:14 10° ENE
STARLINK-1111 3.6 17:15:39 16° SW 17:19:00 87° SE 17:23:12 10° NE
Cosmos 1269 Rocket 4.4 17:15:42 10° N 17:20:58 69° ENE 17:26:18 10° SSE
Cosmos 1048 Rocket 4.2 17:16:01 10° NW 17:21:12 50° WSW 17:26:25 10° S
Cosmos 1331 Rocket 4.2 17:16:49 10° SSW 17:22:14 82° ESE 17:27:33 10° NNE
STARLINK-1073 3.6 17:20:24 14° SW 17:23:57 86° NW 17:28:09 10° NE
Cosmos 2333 Rocket 3.8 17:25:00 15° WSW 17:27:13 18° SW 17:31:06 10° S
Meteor 2-5 Rocket 4.5 17:21:24 10° S 17:27:22 62° ESE 17:33:17 10° NNE
Cosmos 1242 Rocket 3.0 17:24:28 10° SSW 17:27:56 38° W 17:31:19 10° NNW
Cosmos 2237 Rocket 2.7 17:23:12 10° NW 17:28:34 40° WSW 17:33:59 10° SSE
STARLINK-1121 3.6 17:25:11 13° WSW 17:28:55 80° NW 17:33:07 10° NE
Cosmos 2098 Rocket 3.5 17:23:46 10° SSW 17:29:37 64° W 17:34:10 10° N
Radarsat Rocket 4.3 17:24:43 10° N 17:30:50 58° WNW 17:37:49 10° SSW
NOAA 12 4.4 17:28:11 10° NNE 17:33:26 72° ESE 17:38:47 10° S
Cosmos 1244 Rocket 4.5 17:27:13 10° S 17:33:28 78° W 17:39:43 10° N
SL-8 R/B 3.9 17:29:01 12° WSW 17:33:28 72° SSE 17:38:22 10° ENE
PSLV R/B 4.2 17:29:13 10° SSE 17:33:30 78° ENE 17:37:44 10° N
In-Cosmos 22 4.3 17:28:04 10° SSW 17:33:35 59° W 17:39:09 10° N
STARLINK-1106 3.6 17:30:00 12° WSW 17:33:55 73° NW 17:38:05 10° NE
H-2A R/B 4.1 17:34:03 10° SW 17:35:42 12° WSW 17:36:23 11° WSW
CZ-4B R/B 2.7 17:33:11 10° SSW 17:35:52 22° WSW 17:38:35 10° WNW
Cosmos 1674 2.8 17:32:01 10° S 17:35:57 82° E 17:39:51 10° N
Abrixas rocket 3.3 17:35:14 14° WSW 17:37:20 29° S 17:40:04 10° ESE
STARLINK-1112 3.7 17:34:47 11° WSW 17:38:54 67° NW 17:43:03 10° NE
Cosmos 304 Rocket 3.8 17:34:13 10° SSW 17:39:04 64° WNW 17:43:51 10° N
Cosmos 2278 Rocket 3.1 17:34:45 10° SW 17:39:26 27° WNW 17:44:05 10° NNW
Cosmos 1766 3.5 17:35:34 10° N 17:39:29 76° E 17:43:29 10° SSE
Helios 1A Rocket 3.0 17:35:28 10° N 17:39:34 63° W 17:43:46 10° SSW
CZ-4B R/B 3.7 17:35:29 10° NNW 17:40:50 41° W 17:46:12 10° SSW
Cosmos 2297 3.7 17:35:07 10° SSW 17:40:54 88° WNW 17:46:35 10° NNE
Cosmos 1943 Rocket 3.5 17:36:37 10° SSW 17:42:01 42° ESE 17:47:18 10° NE
H-2A R/B 3.1 17:39:51 10° N 17:43:36 43° W 17:47:24 10° SSW
STARLINK-1128 3.8 17:39:40 10° WSW 17:43:51 61° NW 17:47:59 10° NE
Cosmos 1455 Rocket 4.0 17:39:41 10° N 17:44:03 55° E 17:48:26 10° SSE
Meteor 1-15 Rocket 4.4 17:39:27 10° NNW 17:45:15 60° WSW 17:51:13 10° S
Meteor 2-21 4.5 17:40:28 10° SSW 17:46:41 69° W 17:52:48 10° N
Okean O Rocket 2.5 17:43:54 10° NNW 17:47:50 30° W 17:51:50 10° SW
STARLINK-1113 3.8 17:44:42 10° WSW 17:48:51 56° NW 17:52:57 10° NE
COSMO-SKYMED 1 3.8 17:47:17 10° SSE 17:51:36 49° E 17:55:51 10° N
Cosmos 1733 3.4 17:48:59 10° N 17:52:53 79° E 17:56:51 10° S
Aureole 3 Rocket 3.1 17:49:36 10° NNW 17:53:24 76° W 17:58:42 10° S
STARLINK-1119 4.0 17:49:40 10° WSW 17:53:47 51° NW 17:57:50 10° NNE
Cosmos 1110 Rocket 4.3 17:48:45 10° SSW 17:53:52 48° WNW 17:58:57 10° N
Meteor 2-21 Rocket 4.5 17:47:56 10° S 17:54:14 78° W 18:00:23 10° N
Cosmos 1707 4.3 17:52:53 10° SW 17:55:14 15° W 17:57:33 10° WNW
Cosmos 1689 Rocket 3.5 17:53:37 10° SSW 17:56:01 21° WSW 17:58:25 10° WNW
Cosmos 2084 Rocket 3.4 17:51:57 10° SW 17:56:15 78° NW 18:00:28 10° NNE
STARLINK-1114 4.1 17:54:40 10° WSW 17:58:44 46° NW 18:02:45 10° NNE
Cosmos 2369 Rocket 3.5 17:53:31 10° SSW 17:58:56 43° ESE 18:04:19 10° NE
Cosmos 1553 Rocket 4.1 17:52:36 10° NNW 17:59:01 71° W 18:05:28 10° S
Cosmos 1892 Rocket 3.5 17:56:15 10° S 18:00:41 77° W 18:05:02 10° N
